[[{"header":{"parameterUnit":"m.s-1","parameterCategory":1,"la1":30.2991,"la2":30.254,"lo1":-89.0895,"lo2":-89.0444,"dy":0.0017,"dx":0.0017,"nx":28,"ny":28,"refTime":"2024-02-24T03:00:00:Z","depth":0,"parameterNumber":2,"parameterNumberName":"U-component_of_WINDS"},"data":[0,0,0,0,0,0,0,0,0,0,0,0,0,0,0,0,0,0,0,0,0,0,0,0,0,0,0,0,0,0,0,0,0,0,0,0,0,0,0,0,0,0,0,0,0,0,0,0,0,0,0,0,0,0,0,0,0,0,-2.1337,-2.1337,0,-2.1349,-2.1349,-2.1349,-2.1304,-2.1303,-2.1301,-2.13,-2.1313,-2.1314,-2.1316,0,0,0,0,0,0,0,0,0,0,0,0,0,-2.1278,-2.1279,-2.1337,-2.1337,-2.1337,-2.1349,-2.1349,-2.1349,-2.1304,-2.1303,-2.1301,-2.13,-2.1312,-2.1314,-2.1316,0,0,0,0,0,0,0,0,0,0,0,0,0,-2.1298,-2.128,-2.1337,-2.1316,-2.1314,-2.1349,-2.1349,-2.1349,-2.1305,-2.1303,-2.1301,-2.1299,-2.1312,-2.1314,-2.1316,-2.1371,0,0,-2.1323,-2.1324,0,0,0,0,0,0,0,0,-2.1297,-2.13,-2.1319,-2.1318,-2.1316,-2.1323,-2.1333,-2.1356,-2.1305,-2.1308,-2.13,-2.1298,-2.1318,-2.1319,-2.1326,-2.1371,-2.1372,-2.1324,-2.1325,-2.1326,-2.1327,0,0,0,0,0,0,0,-2.1296,-2.13,-2.1341,-2.1319,-2.1317,-2.1307,-2.1308,-2.1337,-2.1324,-2.1308,-2.1305,-2.1307,-2.1316,-2.1324,-2.1326,-2.1372,-2.1324,-2.1326,-2.1327,-2.1328,-2.1465,-2.1467,0,0,0,0,0,0,-2.1297,-2.1299,-2.1341,-2.1342,-2.1301,-2.131,-2.1311,-2.1323,-2.1324,-2.1322,-2.1308,-2.1305,-2.1321,-2.1323,-2.1326,-2.139,-2.1326,-2.1328,-2.133,-2.1462,-2.1465,-2.1467,0,0,0,0,0,0,-2.1296,-2.1301,-2.1341,-2.1319,-2.1324,-2.1313,-2.1327,-2.1324,-2.1331,-2.1324,-2.1322,-2.1318,-2.1319,-2.1323,-2.136,-2.139,-2.1329,-2.1332,-2.146,-2.1463,-2.1466,-2.1519,0,0,0,0,0,0,-2.1294,-2.1301,-2.132,-2.132,-2.1325,-2.1374,-2.1329,-2.1326,-2.1335,-2.133,-2.1333,-2.1331,-2.1318,-2.1357,-2.1363,-2.1392,-2.1333,-2.1457,-2.1461,-2.1465,-2.1514,-2.1523,-2.1531,0,0,0,0,0,-2.1292,-2.1334,-2.1322,-2.1327,-2.1349,-2.1375,-2.1378,-2.1362,-2.1338,-2.1358,-2.1354,-2.1331,-2.1387,-2.1361,-2.1367,-2.1398,-2.1455,-2.146,-2.1465,-2.151,-2.1521,-2.1531,0,0,0,0,0,0,-2.1338,-2.1334,-2.132,-2.1363,-2.137,-2.1368,-2.1392,-2.1375,-2.1388,-2.1383,-2.1364,-2.1365,-2.1405,-2.1406,-2.1378,-2.1452,-2.1417,-2.1423,-2.1449,-2.146,-2.1468,-2.1466,-2.1335,0,0,0,0,0,-2.1353,-2.1374,-2.137,-2.1409,-2.1413,-2.1403,-2.1413,-2.1401,-2.1407,-2.141,-2.1408,-2.1416,-2.1435,-2.1448,-2.1465,-2.1515,-2.1515,-2.154,-2.1548,-2.1555,-2.156,-2.1587,-2.1598,-2.1484,-2.1484,-2.1484,0,0,-2.1384,-2.1385,-2.1399,-2.1418,-2.1422,-2.1445,-2.1405,-2.143,-2.1447,-2.1414,-2.1448,-2.1449,-2.1456,-2.15,-2.1519,-2.1501,-2.1593,-2.1562,-2.1567,-2.1568,-2.1594,-2.1605,-2.1614,-2.1487,-2.1487,-2.1486,0,0,-2.1452,-2.1455,-2.1488,-2.1493,-2.15,-2.1493,-2.1502,-2.1503,-2.1502,-2.1537,-2.1512,-2.1533,-2.1567,-2.1573,-2.1581,-2.1656,-2.1635,-2.1663,-2.1706,-2.1733,-2.1742,-2.1749,-2.1775,-2.1785,-2.1668,-2.1668,-2.1668,0,-2.1489,-2.1522,-2.1507,-2.1534,-2.1544,-2.1516,-2.155,-2.1556,-2.1568,-2.1576,-2.1556,-2.1599,-2.1602,-2.1648,-2.1666,-2.1674,-2.1683,-2.166,-2.1742,-2.1749,-2.1756,-2.1781,-2.1791,-2.1671,-2.1671,-2.1671,-2.167,0,-2.1568,-2.1592,-2.1618,-2.163,-2.1643,-2.1674,-2.1664,-2.1679,-2.1667,-2.1663,-2.1701,-2.1704,-2.1722,-2.1733,-2.1721,-2.1777,-2.1766,-2.1745,-2.1708,-2.1771,-2.1793,-2.1803,-2.1676,-2.1675,-2.1674,-2.1673,0,0,-2.166,-2.1667,-2.1677,-2.1683,-2.1691,-2.1709,-2.174,-2.1758,-2.1771,-2.1782,-2.1807,-2.1838,-2.1819,-2.1828,-2.1817,-2.1841,-2.1901,-2.1817,-2.1817,-2.1831,-2.1963,-2.1977,-2.1988,-2.1889,-2.189,-2.1892,-2.1962,0,-2.1726,-2.1777,-2.1766,-2.1816,-2.1838,-2.1815,-2.1842,-2.185,-2.1848,-2.1868,-2.1866,-2.1888,-2.1861,-2.1867,-2.189,-2.1888,-2.1926,-2.1884,-2.1911,-2.1912,-2.1907,-2.2,-2.2015,-2.208,-2.1971,-2.1972,-2.1974,0,-2.1808,-2.1822,-2.1875,-2.1881,-2.189,-2.1914,-2.1931,-2.195,-2.196,-2.1957,-2.1969,-2.1955,-2.1987,-2.1953,-2.1997,-2.1968,-2.198,-2.1981,-2.1983,-2.1983,-2.1944,-2.2,-2.2101,-2.211,-2.1988,-2.1986,-2.1985,0,-2.1868,-2.1902,-2.1938,-2.1944,-2.1952,-2.197,-2.1974,-2.1982,-2.1995,-2.201,-2.2018,-2.2038,-2.2048,-2.2064,-2.2056,-2.2032,-2.2101,-2.2067,-2.2099,-2.2099,-2.2112,-2.211,-2.2213,-2.2124,-2.2124,-2.2123,-2.2123,0,-2.1941,-2.1973,-2.1965,-2.1987,-2.2024,-2.2012,-2.205,-2.2051,-2.206,-2.2082,-2.2065,-2.2086,-2.2076,-2.2097,-2.2092,-2.2129,-2.2134,-2.2133,-2.213,-2.2133,-2.2133,-2.2138,-2.2132,-2.2126,-2.2125,-2.2125,-2.2124,0,-2.2012,-2.2008,-2.2045,-2.2051,-2.2054,-2.2081,-2.2086,-2.2107,-2.2106,-2.2135,-2.2142,-2.214,-2.2164,-2.2159,-2.2186,-2.2183,-2.2229,-2.2222,-2.2225,-2.2222,-2.2255,-2.2251,-2.2362,-2.2376,-2.228,-2.2281,-2.2281,0,-2.2057,-2.2082,-2.2091,-2.2105,-2.2111,-2.2134,-2.2147,-2.2139,-2.2153,-2.2168,-2.2188,-2.2212,-2.2229,-2.2271,-2.2272,-2.2293,-2.2285,-2.2323,-2.2288,-2.229,-2.2284,-2.2282,-2.2284,-2.2329,-2.233,-2.2331,-2.2332,0,-2.2137,-2.2134,-2.2153,-2.2173,-2.219,-2.2204,-2.2218,-2.2231,-2.2224,-2.2241,-2.2267,-2.2281,-2.231,-2.2333,-2.2354,-2.2359,-2.2345,-2.2344,-2.2352,-2.2353,-2.2353,-2.2352,-2.2241,-2.234,-2.2339,-2.2338,-2.2338,-2.2338,-2.2195,-2.2216,-2.2227,-2.225,-2.2259,-2.2273,-2.2294,-2.2296,-2.2317,-2.2339,-2.2334,-2.2363,-2.2376,-2.2402,-2.241,-2.2433,-2.2419,-2.2432,-2.2434,-2.2437,-2.244,-2.2352,-2.2438,-2.2437,-2.2437,-2.2437,-2.2437,0,-2.2272,-2.2279,-2.23,-2.232,-2.2339,-2.2325,-2.234,-2.2357,-2.2382,-2.2395,-2.2414,-2.2444,-2.2468,-2.2473,-2.2496,-2.2514,-2.2508,-2.252,-2.2517,-2.2519,-2.2452,-2.2442,-2.2525,-2.2525,-2.2525,-2.2525,-2.2525,-2.2525,-2.2314,-2.235,-2.235,-2.2391,-2.2398,-2.2426,-2.2435,-2.2449,-2.2459,-2.2494,-2.2513,-2.2517,-2.2527,-2.2552,-2.2574,-2.2575,-2.2583,-2.2598,-2.2596,-2.2532,-2.2524,-2.2515,-2.2505,-2.26,-2.26,-2.266,-2.2661,-2.2661]},{"header":{"parameterUnit":"m.s-1","parameterCategory":1,"la1":30.2991,"la2":30.254,"lo1":-89.0895,"lo2":-89.0444,"dy":0.0017,"dx":0.0017,"nx":28,"ny":28,"refTime":"2024-02-24T03:00:00:Z","depth":0,"parameterNumber":3,"parameterNumberName":"V-component_of_WINDS"},"data":[0,0,0,0,0,0,0,0,0,0,0,0,0,0,0,0,0,0,0,0,0,0,0,0,0,0,0,0,0,0,0,0,0,0,0,0,0,0,0,0,0,0,0,0,0,0,0,0,0,0,0,0,0,0,0,0,0,0,2.358,2.358,0,2.3578,2.3578,2.3578,2.3623,2.3624,2.3625,2.3626,2.3619,2.3617,2.3616,0,0,0,0,0,0,0,0,0,0,0,0,0,2.3618,2.3617,2.358,2.358,2.358,2.3578,2.3578,2.3578,2.3622,2.3624,2.3625,2.3627,2.3619,2.3617,2.3616,0,0,0,0,0,0,0,0,0,0,0,0,0,2.3607,2.3617,2.358,2.3602,2.3604,2.3578,2.3578,2.3578,2.3622,2.3624,2.3626,2.3627,2.362,2.3618,2.3616,2.3567,0,0,2.3609,2.3609,0,0,0,0,0,0,0,0,2.3608,2.3606,2.3599,2.36,2.3603,2.3603,2.3589,2.3574,2.3622,2.3615,2.3626,2.3628,2.3611,2.361,2.3606,2.3567,2.3566,2.3609,2.3608,2.3607,2.3607,0,0,0,0,0,0,0,2.3608,2.3606,2.3579,2.3599,2.3601,2.3611,2.3611,2.3586,2.3603,2.3616,2.3619,2.3619,2.3613,2.3608,2.3606,2.3566,2.3609,2.3608,2.3606,2.3606,2.3489,2.3487,0,0,0,0,0,0,2.3607,2.3606,2.3579,2.3579,2.361,2.3609,2.3609,2.3601,2.3603,2.3606,2.3617,2.3621,2.361,2.3608,2.3606,2.355,2.3607,2.3605,2.3604,2.3491,2.3489,2.3487,0,0,0,0,0,0,2.3607,2.3604,2.3579,2.3594,2.3591,2.3606,2.3596,2.36,2.3595,2.3604,2.3607,2.3609,2.3611,2.3609,2.3577,2.355,2.3604,2.3603,2.3493,2.349,2.3488,2.3437,0,0,0,0,0,0,2.3608,2.3604,2.3586,2.3593,2.359,2.3551,2.3595,2.3598,2.3592,2.3596,2.3597,2.3599,2.3613,2.358,2.3575,2.3548,2.3601,2.3496,2.3492,2.3489,2.3441,2.3433,2.3426,0,0,0,0,0,2.3609,2.357,2.3585,2.3581,2.3569,2.355,2.3548,2.3566,2.3589,2.3571,2.3578,2.3599,2.3555,2.3576,2.3571,2.3543,2.3497,2.3493,2.3489,2.3444,2.3434,2.3426,0,0,0,0,0,0,2.3556,2.3571,2.3588,2.355,2.3549,2.3557,2.3535,2.3554,2.3545,2.3549,2.3571,2.357,2.3535,2.3537,2.3561,2.3498,2.353,2.3524,2.3498,2.3488,2.3481,2.348,2.3599,0,0,0,0,0,2.3541,2.3526,2.3539,2.3504,2.3503,2.3519,2.3511,2.3526,2.3525,2.3524,2.3528,2.3524,2.351,2.3499,2.3486,2.3442,2.3443,2.3421,2.3413,2.3407,2.3401,2.3379,2.3369,2.3473,2.3473,2.3473,0,0,2.3507,2.3514,2.3502,2.3494,2.3494,2.3477,2.3518,2.3498,2.3485,2.352,2.3491,2.3494,2.3492,2.3455,2.3438,2.3454,2.3374,2.3402,2.3396,2.3394,2.3374,2.3364,2.3355,2.347,2.347,2.3471,0,0,2.3438,2.3441,2.3413,2.3414,2.3416,2.3428,2.3421,2.3428,2.3432,2.3404,2.3431,2.3416,2.339,2.3387,2.3383,2.3316,2.3335,2.3312,2.327,2.3248,2.324,2.3233,2.3209,2.32,2.3306,2.3306,2.3306,0,2.3395,2.3372,2.3396,2.3375,2.337,2.3405,2.3376,2.3375,2.3372,2.3367,2.3387,2.3357,2.3357,2.332,2.3305,2.33,2.3292,2.331,2.324,2.3233,2.3227,2.3204,2.3195,2.3303,2.3304,2.3304,2.3304,0,2.332,2.3303,2.328,2.3279,2.3272,2.3247,2.3267,2.3257,2.3273,2.3283,2.3254,2.3257,2.3246,2.3239,2.3253,2.3204,2.3215,2.3237,2.3269,2.3213,2.3193,2.3184,2.3299,2.33,2.3301,2.3302,0,0,2.3213,2.3228,2.3219,2.322,2.3226,2.3213,2.3191,2.3183,2.3174,2.3171,2.3152,2.3132,2.3153,2.3148,2.3162,2.3144,2.3091,2.3168,2.3168,2.3153,2.3038,2.3021,2.301,2.3105,2.3104,2.3102,2.3038,0,2.3145,2.3108,2.3131,2.309,2.3076,2.311,2.309,2.3091,2.31,2.3089,2.3098,2.3083,2.3113,2.311,2.3093,2.3101,2.3068,2.3106,2.3086,2.3085,2.3084,2.2999,2.298,2.2919,2.303,2.3029,2.3028,0,2.306,2.3057,2.3015,2.3027,2.3022,2.3004,2.2999,2.2988,2.299,2.2999,2.2995,2.3015,2.2993,2.3027,2.2997,2.3023,2.3016,2.3019,2.3017,2.3015,2.3052,2.2993,2.29,2.2891,2.3015,2.3016,2.3017,0,2.2986,2.2971,2.2945,2.2945,2.2957,2.2944,2.2949,2.2953,2.2948,2.2944,2.294,2.2933,2.2928,2.2922,2.2939,2.2963,2.2907,2.2942,2.2912,2.2911,2.2896,2.2897,2.28,2.2894,2.2895,2.2895,2.2895,0,2.2907,2.288,2.2913,2.2896,2.2868,2.2894,2.2864,2.2872,2.2877,2.2862,2.2891,2.2877,2.2902,2.2889,2.2903,2.2876,2.2874,2.2879,2.2883,2.2876,2.2875,2.287,2.2874,2.2892,2.2893,2.2893,2.2894,0,2.2818,2.2839,2.2813,2.2828,2.2832,2.281,2.2823,2.2808,2.2821,2.2802,2.2799,2.2818,2.2806,2.2824,2.2812,2.2821,2.2785,2.2795,2.2784,2.2787,2.2755,2.2758,2.2651,2.2638,2.2742,2.2741,2.274,0,2.2765,2.2746,2.2761,2.2755,2.2758,2.2747,2.2742,2.2768,2.2762,2.2766,2.275,2.2741,2.2735,2.2713,2.2725,2.2717,2.2727,2.269,2.2725,2.272,2.2725,2.2726,2.2724,2.2682,2.2681,2.268,2.2679,0,2.267,2.2682,2.2675,2.2673,2.2668,2.2666,2.2667,2.266,2.2687,2.2679,2.2668,2.2664,2.2654,2.2644,2.264,2.2643,2.2665,2.2668,2.2661,2.2652,2.2647,2.2649,2.2763,2.267,2.2671,2.2671,2.2672,2.2672,2.2597,2.2582,2.2591,2.2583,2.2588,2.2588,2.2576,2.2589,2.2581,2.2576,2.2592,2.2578,2.2583,2.258,2.2581,2.257,2.2585,2.2574,2.2571,2.2568,2.2563,2.265,2.2569,2.2569,2.257,2.257,2.257,0,2.2502,2.2511,2.2504,2.2506,2.25,2.2525,2.2528,2.252,2.2508,2.2512,2.2507,2.2495,2.2486,2.2499,2.2493,2.2481,2.2491,2.2478,2.2478,2.2479,2.2549,2.2556,2.247,2.247,2.247,2.247,2.247,2.247,2.2452,2.2429,2.2443,2.2422,2.2431,2.2418,2.2418,2.2419,2.2423,2.2409,2.2403,2.2413,2.242,2.2415,2.2408,2.2413,2.2408,2.2392,2.2399,2.2464,2.2474,2.2483,2.249,2.2391,2.2391,2.233,2.2329,2.2329]}]]